Volver al catálogo

SL-16 DEB

ActivoLEO
NORAD 22398·DEBRIS·🇷🇺 Russia

Lanzado Dec 25, 1992 desde Baikonur Cosmodrome

Loading…

Próximos Pases (próximas 24 horas)

TLE

ActualizadoSource: Space-Track

Época: Sep 13, 2026, 23:36 UTC

1 22398U 92093CP  26256.98376782  .00000752  00000-0  43844-3 0  9998
2 22398  70.9504 111.3650 0107586 200.9856 158.6833 14.08879175721582

Sigue SL-16 DEB en tiempo real con AllMySat

Download on the App Store